Regional Weather Roundup
Issued by NWS Wakefield, VA

Home | Current Version | Previous Version | Text Only | Print | Product List | Glossary Off
Versions: 1 2 3 4 5 6 7 8 9 10 11 12 13 14 15 16 17 18 19 20 21 22 23 24 25 26 27 28 29 30 31 32 33 34 35 36 37 38 39 40 41 42 43 44 45 46 47 48 49 50

000
ASUS41 KAKQ 172110
RWRAKQ

REGIONAL WEATHER ROUNDUP
NATIONAL WEATHER SERVICE WAKEFIELD VA
400 PM EST WED DEC 17 2014

Note: "fair" indicates few or no clouds below 12,000 feet with no
significant weather and/or obstructions to visibility. * = Denotes
station may not report precipitation (e.g., rain,snow,etc.),
thunder or fog.

VAZ042-051-052>054-056-172200-
NORTHERN VIRGINIA

CITY           SKY/WX    TMP DP  RH WIND       PRES   REMARKS
WASH NATIONAL  PTCLDY    53  28  38 NW17      29.98S
DULLES         PTCLDY    47  28  47 NW18      29.99S
FORT BELVOIR   CLEAR     52  30  43 VRB7      29.99R
QUANTICO       PTCLDY    53  33  46 N12       29.98S
FREDERICKSBRG* CLEAR     58  32  38 W7        29.96S
STAFFORD*      PTCLDY    55  32  42 CALM      30.00S
WARRENTON      CLEAR     54  33  45 NW12      29.97R
CULPEPER*      CLEAR     55  27  33 NW6       29.98R
MANASSAS*      NOT AVBL
LEESBURG*      CLEAR     46  32  57 MISG      30.00R
WINCHESTER     CLEAR     45  21  39 NW16      30.01R
FRONT ROYAL*   CLEAR     46  27  46 NW8       29.99R
LURAY*         CLEAR     50  27  40 W12       29.99R
$$

VAZ048-049-060>072-079>083-172200-
CENTRAL AND SOUTH CENTRAL VIRGINIA

CITY           SKY/WX    TMP DP  RH WIND       PRES   REMARKS
RICHMOND       MOCLDY    57  32  38 W16       29.97S
CHESTERFIELD*  PTCLDY    55  30  38 W9        29.99S
PETERSBURG*    PTCLDY    57  34  41 W10       29.99S
HANOVER        CLEAR     55  34  45 W7        29.98F
TAPPAHANNOCK*  CLEAR     57  31  37 W7        29.96F
QUINTON*       PTCLDY    55  36  48 W8G16     29.97S
CHARLOTTSVILLE CLEAR     54  25  32 VRB6      29.97S
GORDONSVILLE*  PTCLDY    54  29  38 SW5       29.97S
ORANGE*        CLEAR     54  28  37 W5        29.99R
LOUISA*        CLEAR     55  30  38 W8        29.96S
BUMPASS*       CLEAR     54  31  42 NW5       29.97S
FARMVILLE*     CLEAR     58  30  34 SW7       29.98S
CREWE*         CLEAR     55  33  41 W5        29.99S
FORT PICKETT*  CLEAR     55  34  45 W9        29.99S
CHASE CITY*    CLEAR     57  36  45 W5        30.00S
CLARKSVILLE*   CLEAR     55  34  44 W5        30.00F
SOUTH HILL*    CLEAR     55  35  46 W3        30.06S
LAWRENCEVILLE* CLEAR     55  37  49 W6        29.99S
EMPORIA*       CLEAR     55  36  47 SW3       30.01S
$$

VAZ088>098-172200-
SOUTHEAST VIRGINIA

CITY           SKY/WX    TMP DP  RH WIND       PRES   REMARKS
NORFOLK        CLEAR     57  36  45 W7        29.96S
VIRGINIA BEACH PTCLDY    58  39  49 NW9       29.96R
NORFOLK NAVAL  PTCLDY    58  40  51 W7        29.98S
WEST POINT*    MOCLDY    55  37  52 SW5       29.97F
SALUDA*        FAIR      56  38  50 W6        29.95S
NEWPORT NEWS   PTCLDY    60  38  43 W13       29.96F
LANGLEY AFB    CLEAR     57  39  51 W13       29.97S
FORT EUSTIS    PTCLDY    57  40  52 W8G22     29.95S
WILLIAMSBURG*  PTCLDY    61  41  48 W12       29.98S
HR EXEC AP*    CLEAR     57  37  47 W9        30.00R
FRANKLIN*      CLEAR     55  39  54 W8        29.98F
WAKEFIELD      PTCLDY    58  38  47 W7        29.98S
$$

VAZ020-022-025-037-045-172200-
WEST CENTRAL AND SOUTHWEST VIRGINIA

CITY           SKY/WX    TMP DP  RH WIND       PRES   REMARKS
STAUNTON*      CLEAR     51  21  30 W7        30.00R
WAYNESBORO*    CLEAR     48  25  41 W6        29.98S
HOT SPRINGS VA CLEAR     34  22  60 W16G24    29.94S WCI  23
LYNCHBURG      CLEAR     50  26  39 W7        30.02S
DANVILLE       CLEAR     58  31  35 W3        30.02S
SOUTH BOSTON*  CLEAR     56  30  37 W8        30.01S
MARTINSVILLE   SUNNY     57  29  34 W3        30.04S
ROANOKE        PTCLDY    50  25  37 NW12      30.05S
BLACKSBURG     SUNNY     42  27  55 NW10G16   30.06F
DUBLIN*        SUNNY     45  30  55 W10G17    30.06S
MARION*        SUNNY     45  32  61 SW10      30.08R
HILLSVILLE*    SUNNY     44  28  54 NW15      30.03S
RICHLANDS*     CLEAR     41  24  50 W7        30.08R
WISE*          SUNNY     43  27  52 W5        30.11R
ABINGDON*      SUNNY     46  32  58 W10       30.10S
$$

MDZ021>025-VAZ099-100-172200-
SOUTHERN MARYLAND AND THE DELMARVA PENINSULA

CITY           SKY/WX    TMP DP  RH WIND       PRES   REMARKS
PATUXENT RIVER MOCLDY    55  35  47 NW10      29.94F
BAY BRIDGE APT   N/A     50  32  50 NW12      29.97R
LEONARDTOWN    PTCLDY    54  34  47 W5        29.96S
DOVER          PTCLDY    51  33  50 W18G31    29.91R
GEORGETOWN     CLEAR     53  32  44 NW12G24   29.93R
EASTON         PTCLDY    54  34  47 NW10G16   29.99R
CAMBRIDGE      CLEAR     52  32  46 NW6       29.94S
SALISBURY      CLEAR     54  33  45 W10       29.94S
OCEAN CITY     CLEAR     52  36  54 W7        29.94R
WALLOPS ISLAND PTCLDY    49  41  74 W5        29.95S
ACCOMACK*      PTCLDY    54  37  54 W6        29.95S
$$

NCZ012>017-030>032-172200-
NORTH CENTRAL AND EASTERN NORTH CAROLINA

CITY           SKY/WX    TMP DP  RH WIND       PRES   REMARKS
ROANOKE RAPIDS CLEAR     55  37  50 W5        30.01S
RALEIGH        PTCLDY    58  35  42 VRB5      30.02F
ELIZABETH CITY CLEAR     61  41  47 W8        29.99R
AHOSKIE*       CLEAR     55  39  54 CALM      30.00F
EDENTON*       CLEAR     58  40  51 W6        30.00R
CURRITUCK*     CLEAR     59  37  45 W7        29.98S
KILL DEVIL HLS CLEAR     55  43  62 W5        29.98S
MANTEO         CLEAR     55  42  60 NW6       30.00R
CAPE HATTERAS  CLEAR     54  45  71 W5        30.01R
TARBORO*       CLEAR     59  40  48 W8        30.02S
GOLDSBORO      CLEAR     59  44  57 W13       30.01R
WASHINGTON     CLEAR     58  39  49 W3        30.02R
GREENVILLE     CLEAR     59  37  44 NW5       30.04R
NEW BERN       CLEAR     62  40  44 W8        30.03S
WILMINGTON     SUNNY     61  39  44 W13       30.04S
$$

VAZ048-172200-
ELSEWHERE

CITY           SKY/WX    TMP DP  RH WIND       PRES   REMARKS
HARRISBURG PA  MOCLDY    43  28  55 W16G26    29.96R
BALTIMORE      PTCLDY    49  28  44 NW13G22   29.97R
ANNAPOLIS      PTCLDY    50  31  48 NW9       29.96S
ANDREWS AFB    CLEAR     49  30  46 NW15      29.96S
PHILADELPHIA   MOCLDY    50  31  48 W17G26    29.93R
HENDERSON NC   CLEAR     56  32  40 W5        30.01F
GREENSBORO     PTSUNNY   56  33  42 W8        30.02F
ROCKY MOUNT    CLEAR     58  37  45 W7        30.01F
$$

VAZ100-172200-
MARINE

STATION/POSITION TIME  TEMP    WIND        PRES    WAVE   SWELL
                       AIR SEA DIR/SP/G            HT/PER HT/PER
                 (UTC) (F)     (DEG/KT/KT) (MB)    (FT/S) (FT/S)
CAPE MAY NJ      2100   47 46  310/ 15/ 18 1012.5R
LEWES DE         2100   50 44  310/ 15/ 18 1013.1R
15NM E FENWICK I 2100   50 48              1013.0R   3/ 4
OCEAN-CITY-INLET 2100          320/ 11/ 15   N/A
WACHAPREAGUE VA  2100   56 46  290/  1/  4 1014.2S
THOMAS POINT MD  2100   51 43  310/ 14/ 16 1015.6R
GOOSES REEF MD   2100   50     VRB 16/ 19  1013.1F   1/ 2
COVE POINT MD    2100   52     340/ 11/ 12 1013.9F
SOLOMONS ISLAND  2100      45                N/A
BISHOPS HEAD MD  2100   48 45  250/  4/  5 1013.5F
PINEY POINT MD   2100          320/  8/  8   N/A
POTOMAC MD       2100   49 45  320/  2/  4 1013.4F   0
CAMBRIDGE MD     2100   50 42  300/  8/ 12 1013.8S
LEWISETTA VA     2100   52 44  350/  4/  6 1013.7F
RAPPAHANNOCK LGT 2100          220/  7/  7 1014.8S
STINGRAY PT      2100   54 45  270/ 10/ 12 1014.8F   1
YORK RVR RNG VA  2100   54     290/  9/ 11 1014.0R
YORKTOWN VA      2100   56 46  290/ 10/ 11 1014.2S
JAMESTOWN VA     2100   51 46  320/ 10/ 10   N/A     0
DOMINION TERM VA 2100   54     300/ 11/ 12 1014.5F
KIPTOPEKE VA     2100      52  300/  5/  7   N/A
CHES BAY BRIDGE  2100   53 46  260/  9/ 10 1014.1F
CAPE HENRY VA    2100   56     280/  9/ 12 1013.4F
CHESAPEAKE LGHT  2000   52     210/  4/  5 1015.2F
WILLOUBY STN VA  2100   55     280/  9/ 11 1015.0F
S CRANEY ISL VA  2100          270/  6/  8 1014.6S
CAPE HENRY BUOY  2000      49                N/A     2/ 8
1ST LANDING BUOY 2100   52 47  270/  8/  8 1014.3F   1/ 4
CAPE CHARLES BUO 2100      48                N/A     2/ 7   2/ 7
64NM E OF VA BCH 2100   52 55  290/  8/  8 1014.8R   3/ 8   3/ 8
DUCK PIER NC     2100   54 49  230/  7/  9 1014.6R
44100 DUCK FRF   2100      52                N/A     2/11
44056 DUCK FRF   2100      49                N/A     2/ 9
OREGON INLET NC  2100   53 51  150/  4/  7 1015.8R
HATTERAS NC      2100   55 53  250/  6/  8 1016.5S
DIAMOND SHLS NC  2100   56                 1016.7R   3/ 8
CAPE LOOKOUT NC  2000   57     230/  6/  8 1016.7F
$$


USA.gov is the U.S. government's official web portal to all federal, state and local government web resources and services.